STARLINK-32936, 63147

Orbit data source: Space-Track

STARLINK-32936, 63147 is a payload satellite owned by SpaceX/Seattle (US) in LEO that was launched on Mon, 03 Mar 2025 UTC via an FALCON 9 launch vehicle from the Air Force Eastern Test Range (AFETR). Payload-class satellites include a variety of spacecraft equipped with specific instruments for various scientific and technological missions. These include communications satellites like Starlink; space stations such as the ISS; scientific satellites like the Hubble; Earth observation satellites from companies like Planet Labs, Umbra, and HawkEye 360; GPS; miniature CubeSats for education and research; and military/defense satellites.

Loading next visibility...
Identifier
63147, 2025-043R
Orbit
LEO
Country
Flag of USUS
Related business
Manufacturer
SpaceX/Seattle
Mission
Operational Commercial Communications
Bus & Motor
STARLINK V2M, Unknown motor
Mass
730 kg wet, ~700 kg dry
Launch date (UTC)
2025-03-03 (11 months ago)
Launch vehicle
FALCON 9
Launch site
Air Force Eastern Test Range (AFETR)
Object type
Payload
Rocket body
Debris
Shape & HBR
Box + 2 Pan, 17.7 m
Radar Cross Section
33.884 m², Large (>1 m²)

Expand to show TLE details & history
Last TLE update: 12 hours ago

TLE from 12 hours ago
0 STARLINK-32936
1 63147U 25043R   26036.91469194  .00037017  00000-0  13464-2 0  9993
2 63147  43.0010 202.5345 0001968 264.2003  95.8625 15.27616501 52425
Epoch: 2026-02-05T21:57Z
TLE epoch observation values (Epoch: 2026-02-05T21:57:09.383Z)
Latitude
0.00002°
Longitude
97.18535°
Altitude
482.853 km
Speed
7.626 km/s
True Right ascension
13h 30m 08s
True Declination
0° 00' 00"
Sunlit
Object was in full shadow at epoch
Visualization orbit readout
Latitude
Unknown
Longitude
Unknown
Altitude
Unknown
Speed
Unknown
Apparent Right ascension
Unknown
Apparent Declination
Unknown
Sunlit
N/A
Visualization observer readout
Local Sidereal Time
11:35:27
Azimuth
Unknown
Elevation
Unknown
Doppler factor
Unknown
Orbital elements
Apogee altitude
486.235 km
Perigee altitude
483.534 km
Semi-major axis
6,863.022 km
Eccentricity
0.0002
Inclination
43.001°
RAAN
202.5345°
Arg. of periapsis
264.2003°
True anomaly
95.88493°
Mean anomaly
95.8625°
Eccentric anomaly
95.87372°
Mean motion
3.81742 °/min
Orbital period
94.3 mins
BSTAR
0.0013464
Loading maneuver chart data...
Computing Atmospheric mass density...
Loading historical data...
Loading historical data...
Loading historical data...
Loading historical data...
Loading historical data...
Loading historical data...
Loading historical data...

Documentation

Showing up to 5 results
|